Location: G�ndlingen
(48.0142°N, 7.6396°E)
Time: 18:56:59
(UTC+00:00)

SL-8 Rocket - Pass Details

Date: 05 July 2020
Orbit: 958 x 990 km, 82.9° (Epoch: 12 August)

Event Time Altitude Azimuth Distance (km) Brightness Sun altitude
Exits shadow 23:31:01 27° 212° (SSW) 1,747 4.9 -19.3°
Maximum altitude 23:34:23 61° 282° (WNW) 1,088 4.3 -19.3°
Drops below altitude 10° 23:40:30 10° 3° (N) 2,702 7.6 -19.3°
Sets 23:43:03 0° 7° (N) 3,652 8.6 -19.3°
